Showing default

OPS 7218 (TRANSIT 16), 2807

Orbit data source: Space-Track

OPS 7218 (TRANSIT 16), 2807 is a payload satellite owned by USN NAVAIR (US) in LEO that was launched on Thu, 18 May 1967 UTC via an SCOUT A launch vehicle from the Air Force Western Test Range (AFWTR). Payloads include a variety of satellites, spacecraft, and rockets equipped with specific instruments for various scientific and technological missions. These include communications satellites like Starlink; space stations such as the ISS; scientific satellites like the Hubble; Earth observation satellites from companies like Planet Labs, Umbra, and HawkEye 360; GPS; miniature CubeSats for education and research; and military/defense satellites.

Loading next visibility...
OPS 7218 (TRANSIT 16) details
Identifier
2807, 1967-048A
Orbit
LEO
Last TLE update11 hours ago
Origin
Flag of USUSN NAVAIR (US)
ManufacturerAPL
MissionDefense Navigation
Bus & MotorTRANSIT 5, Unknown motor
Mass~50 kg wet, ~50 kg dry
Launch date (UTC)
1967-05-18 (58 years ago)
Launch vehicle
SCOUT A
Launch site
Air Force Western Test Range (AFWTR)
Object type
Payload
Rocket body
Debris
Shape & HBROct Cyl + 4 Pan + 1 Rod, Unknown HBR
Radar Cross Section7.565 m², Large (>1 m²)

Expand to show TLE details & history

TLE from 11 hours ago
0 OPS 7218 (TRANSIT 16)
1 02807U 67048A   25015.54569191  .00000128  00000-0  18361-3 0  9998
2 02807  89.6741   4.8245 0020223 359.7080 116.2671 13.50622015838051
Epoch: 2025-01-15T13:05Z
Definitive object data (Epoch: 2025-01-15T13:05:47.781Z)
Latitude63.89924°
Longitude-127.52291°
Altitude1,087.752 km
Speed7.311 km/s
True Right ascension12h 16m 39s
True Declination63° 46' 09"
Sunlit
Object was in daylight at TLE epoch
Visualization TLE readout
Latitude54.48071°
Longitude-127.33°
Altitude1,088.119 km
Speed7.309 km/s
Apparent Right ascension12h 24m 34s
Apparent Declination12° 06' 38"
Sunlit
Object is in daylight
Visualization observer readout
Local Sidereal Time00:30:55
Azimuth1.967° NNE
Elevation-37.952°
Doppler factor1
Orbital elements
Apogee altitude1,082.076 km
Perigee altitude1,051.964 km
Semi-major axis7,445.157 km
Eccentricity0.0020223
Inclination89.6741°
RAAN4.8245°
Arg. of periapsis359.708°
True anomaly116.47468°
Mean anomaly116.2671°
Eccentric anomaly116.37091°
Mean motion3.37857 °/min
BSTAR0.00018361
Orbital period106.55 mins
Loading maneuver chart data...
Loading historical data...
Loading historical data...
Loading historical data...
Loading historical data...
Loading historical data...
Loading historical data...
Loading historical data...

OPS 7218 (TRANSIT 16) Visibility forecast

Observer location: undefined°, undefined

Span
Click to sort rows by Start time (UTC) header in descending order
Start Az.
Max El. time (UTC)
Max El. Az.
Max El.
End time (UTC)
End Az.
7 mins2025-01-16 01:06:41.006Z245.511° WSW2025-01-16 01:10:41.006Z285.344° WNW16.831°2025-01-16 01:13:41.006Z315.495° NNW
10 mins2025-01-16 10:28:41.006Z30.853° NE2025-01-16 10:32:41.006Z78.654° E27.573°2025-01-16 10:38:41.006Z143.562° SSE
10 mins2025-01-16 12:14:41.006Z341.715° N2025-01-16 12:19:41.006Z275.193° WNW33.339°2025-01-16 12:24:41.006Z216.43° SW
9 mins2025-01-16 22:26:41.006Z125.14° SE2025-01-16 22:30:41.006Z76.295° E26.358°2025-01-16 22:35:41.006Z21.94° NNE
|